Time,TemperatureF,DewpointF,PressureIn,WindDirection,WindDirectionDegrees,WindSpeedMPH,WindSpeedGustMPH,Humidity,HourlyPrecipIn,Conditions,Clouds,dailyrainin,SoftwareType,DateUTC
2013-03-21 00:02:00,24.0,18.0,-100.00,WNW,302,20.0,27.0,80,-99.99,,,-99.99,,2013-03-21 06:02:00,
2013-03-21 00:12:00,24.0,18.0,-100.00,West,274,19.0,27.0,80,-99.99,,,-99.99,,2013-03-21 06:12:00,
2013-03-21 00:22:00,25.0,19.0,-100.00,WNW,296,20.0,27.0,79,-99.99,,,-99.99,,2013-03-21 06:22:00,
2013-03-21 00:32:00,25.0,19.0,-100.00,SW,234,16.0,27.0,79,-99.99,,,-99.99,,2013-03-21 06:32:00,
2013-03-21 00:42:00,25.0,19.0,-100.00,WNW,291,15.0,27.0,79,-99.99,,,-99.99,,2013-03-21 06:42:00,
2013-03-21 00:52:00,25.0,19.0,-100.00,WNW,291,15.0,27.0,79,-99.99,,,-99.99,,2013-03-21 06:52:00,
2013-03-21 01:02:00,25.0,19.0,-100.00,WSW,239,11.0,25.0,81,-99.99,,,-99.99,,2013-03-21 07:02:00,
2013-03-21 01:12:00,25.0,19.0,-100.00,NNW,331,12.0,25.0,81,-99.99,,,-99.99,,2013-03-21 07:12:00,
2013-03-21 01:22:00,25.0,20.0,-100.00,West,268,10.0,18.0,81,-99.99,,,-99.99,,2013-03-21 07:22:00,
2013-03-21 01:32:00,24.0,19.0,-100.00,West,268,10.0,16.0,83,-99.99,,,-99.99,,2013-03-21 07:32:00,
2013-03-21 01:42:00,24.0,19.0,-100.00,ENE,68,3.0,16.0,83,-99.99,,,-99.99,,2013-03-21 07:42:00,
2013-03-21 01:52:00,24.0,18.0,-100.00,ENE,68,3.0,11.0,81,-99.99,,,-99.99,,2013-03-21 07:52:00,
2013-03-21 02:02:00,25.0,19.0,-100.00,SSE,165,5.0,9.0,80,-99.99,,,-99.99,,2013-03-21 08:02:00,
2013-03-21 02:13:00,25.0,19.0,-100.00,SSE,165,5.0,9.0,80,-99.99,,,-99.99,,2013-03-21 08:13:00,
2013-03-21 02:22:00,25.0,18.0,-100.00,SSE,165,5.0,8.0,77,-99.99,,,-99.99,,2013-03-21 08:22:00,
2013-03-21 02:33:00,25.0,18.0,-100.00,SSE,165,5.0,7.0,75,-99.99,,,-99.99,,2013-03-21 08:33:00,
2013-03-21 02:42:00,25.0,18.0,-100.00,SSE,165,5.0,7.0,75,-99.99,,,-99.99,,2013-03-21 08:42:00,
2013-03-21 02:52:00,25.0,18.0,-100.00,SSE,165,5.0,8.0,75,-99.99,,,-99.99,,2013-03-21 08:52:00,
2013-03-21 03:02:00,25.0,18.0,-100.00,SSE,165,5.0,6.0,76,-99.99,,,-99.99,,2013-03-21 09:02:00,
2013-03-21 03:11:00,25.0,18.0,-100.00,SSE,165,5.0,6.0,76,-99.99,,,-99.99,,2013-03-21 09:11:00,
2013-03-21 03:21:00,25.0,19.0,-100.00,SSE,165,5.0,5.0,80,-99.99,,,-99.99,,2013-03-21 09:21:00,
2013-03-21 03:33:00,24.0,18.0,-100.00,SSE,165,5.0,5.0,79,-99.99,,,-99.99,,2013-03-21 09:33:00,
2013-03-21 03:43:00,24.0,18.0,-100.00,SSE,165,5.0,5.0,79,-99.99,,,-99.99,,2013-03-21 09:43:00,
2013-03-21 03:53:00,25.0,19.0,-100.00,ENE,57,1.0,9.0,78,-99.99,,,-99.99,,2013-03-21 09:53:00,
2013-03-21 04:03:00,25.0,19.0,-100.00,ENE,57,1.0,5.0,77,-99.99,,,-99.99,,2013-03-21 10:03:00,
2013-03-21 04:12:00,25.0,19.0,-100.00,ENE,57,1.0,5.0,77,-99.99,,,-99.99,,2013-03-21 10:12:00,
2013-03-21 04:22:00,25.0,19.0,-100.00,ENE,57,1.0,5.0,76,-99.99,,,-99.99,,2013-03-21 10:22:00,
2013-03-21 04:33:00,25.0,19.0,-100.00,ENE,57,1.0,5.0,76,-99.99,,,-99.99,,2013-03-21 10:33:00,
2013-03-21 04:42:00,25.0,19.0,-100.00,ENE,57,1.0,8.0,76,-99.99,,,-99.99,,2013-03-21 10:42:00,
2013-03-21 04:53:00,25.0,19.0,-100.00,ENE,57,1.0,6.0,76,-99.99,,,-99.99,,2013-03-21 10:53:00,
2013-03-21 05:03:00,25.0,19.0,-100.00,ENE,57,1.0,7.0,77,-99.99,,,-99.99,,2013-03-21 11:03:00,
2013-03-21 05:12:00,25.0,19.0,-100.00,ENE,57,1.0,7.0,77,-99.99,,,-99.99,,2013-03-21 11:12:00,
2013-03-21 05:22:00,25.0,19.0,-100.00,ENE,63,1.0,7.0,76,-99.99,,,-99.99,,2013-03-21 11:22:00,
2013-03-21 05:33:00,24.0,18.0,-100.00,ENE,63,1.0,8.0,78,-99.99,,,-99.99,,2013-03-21 11:33:00,
2013-03-21 05:43:00,24.0,18.0,-100.00,ENE,63,1.0,8.0,78,-99.99,,,-99.99,,2013-03-21 11:43:00,
2013-03-21 05:52:00,24.0,18.0,-100.00,WSW,245,12.0,12.0,80,-99.99,,,-99.99,,2013-03-21 11:52:00,
2013-03-21 06:02:00,25.0,19.0,-100.00,WSW,251,13.0,20.0,78,-99.99,,,-99.99,,2013-03-21 12:02:00,
2013-03-21 06:12:00,25.0,19.0,-100.00,WSW,256,12.0,20.0,78,-99.99,,,-99.99,,2013-03-21 12:12:00,
2013-03-21 06:22:00,24.0,18.0,-100.00,West,262,11.0,20.0,80,-99.99,,,-99.99,,2013-03-21 12:22:00,
2013-03-21 06:32:00,25.0,19.0,-100.00,West,268,11.0,16.0,79,-99.99,,,-99.99,,2013-03-21 12:32:00,
2013-03-21 06:42:00,25.0,19.0,-100.00,West,268,8.0,16.0,79,-99.99,,,-99.99,,2013-03-21 12:42:00,
2013-03-21 06:52:00,25.0,20.0,-100.00,WNW,296,5.0,11.0,82,-99.99,,,-99.99,,2013-03-21 12:52:00,
2013-03-21 07:02:00,24.0,20.0,-100.00,WNW,296,5.0,13.0,85,-99.99,,,-99.99,,2013-03-21 13:02:00,
2013-03-21 07:12:00,24.0,20.0,-100.00,WNW,296,5.0,13.0,85,-99.99,,,-99.99,,2013-03-21 13:12:00,
2013-03-21 07:22:00,24.0,21.0,-100.00,WNW,296,5.0,5.0,89,-99.99,,,-99.99,,2013-03-21 13:22:00,
2013-03-21 07:32:00,23.0,21.0,-100.00,WNW,296,5.0,6.0,91,-99.99,,,-99.99,,2013-03-21 13:32:00,
2013-03-21 07:42:00,23.0,21.0,-100.00,WNW,296,5.0,6.0,91,-99.99,,,-99.99,,2013-03-21 13:42:00,
2013-03-21 07:52:00,23.0,21.0,-100.00,ESE,108,1.0,2.0,93,-99.99,,,-99.99,,2013-03-21 13:52:00,
2013-03-21 08:02:00,23.0,21.0,-100.00,ESE,108,1.0,4.0,94,-99.99,,,-99.99,,2013-03-21 14:02:00,
2013-03-21 08:12:00,23.0,21.0,-100.00,ESE,108,1.0,4.0,94,-99.99,,,-99.99,,2013-03-21 14:12:00,
2013-03-21 08:21:00,24.0,20.0,-100.00,North,6,2.0,15.0,86,-99.99,,,-99.99,,2013-03-21 14:21:00,
2013-03-21 08:32:00,24.0,20.0,-100.00,North,6,2.0,15.0,87,-99.99,,,-99.99,,2013-03-21 14:32:00,
2013-03-21 08:42:00,24.0,20.0,-100.00,NNW,342,5.0,15.0,87,-99.99,,,-99.99,,2013-03-21 14:42:00,
2013-03-21 08:52:00,25.0,19.0,-100.00,West,268,14.0,15.0,79,-99.99,,,-99.99,,2013-03-21 14:52:00,
2013-03-21 09:03:00,25.0,19.0,-100.00,West,268,14.0,15.0,79,-99.99,,,-99.99,,2013-03-21 15:03:00,
2013-03-21 09:12:00,25.0,19.0,-100.00,WSW,256,15.0,29.0,80,-99.99,,,-99.99,,2013-03-21 15:12:00,
2013-03-21 09:22:00,26.0,19.0,-100.00,West,274,21.0,24.0,76,-99.99,,,-99.99,,2013-03-21 15:22:00,
2013-03-21 09:33:00,26.0,19.0,-100.00,West,274,21.0,24.0,76,-99.99,,,-99.99,,2013-03-21 15:33:00,
2013-03-21 09:42:00,27.0,18.0,-100.00,WSW,251,18.0,18.0,69,-99.99,,,-99.99,,2013-03-21 15:42:00,
2013-03-21 09:53:00,26.0,18.0,-100.00,WNW,296,19.0,19.0,74,-99.99,,,-99.99,,2013-03-21 15:53:00,
2013-03-21 10:03:00,27.0,18.0,-100.00,WSW,256,17.0,29.0,69,-99.99,,,-99.99,,2013-03-21 16:03:00,
2013-03-21 10:10:00,29.0,16.0,-100.00,West,274,19.0,28.0,58,-99.99,,,-99.99,,2013-03-21 16:10:00,
2013-03-21 10:12:00,27.0,18.0,-100.00,NNW,342,17.0,29.0,69,-99.99,,,-99.99,,2013-03-21 16:12:00,
2013-03-21 10:23:00,28.0,18.0,-100.00,West,279,21.0,31.0,68,-99.99,,,-99.99,,2013-03-21 16:23:00,
2013-03-21 10:33:00,28.0,18.0,-100.00,West,279,21.0,31.0,68,-99.99,,,-99.99,,2013-03-21 16:33:00,
2013-03-21 10:42:00,29.0,16.0,-100.00,West,274,19.0,28.0,58,-99.99,,,-99.99,,2013-03-21 16:42:00,
2013-03-21 10:52:00,29.0,16.0,-100.00,West,274,19.0,28.0,58,-99.99,,,-99.99,,2013-03-21 16:52:00,
2013-03-21 11:02:00,29.0,16.0,-100.00,West,274,19.0,28.0,58,-99.99,,,-99.99,,2013-03-21 17:02:00,
2013-03-21 12:32:00,31.0,14.0,-100.00,WSW,239,3.0,15.0,48,-99.99,,,-99.99,,2013-03-21 18:32:00,
2013-03-21 12:43:00,32.0,12.0,-100.00,North,0,3.0,20.0,43,-99.99,,,-99.99,,2013-03-21 18:43:00,
2013-03-21 12:52:00,32.0,15.0,-100.00,North,0,3.0,8.0,49,-99.99,,,-99.99,,2013-03-21 18:52:00,
2013-03-21 13:02:00,32.0,13.0,-100.00,North,0,3.0,6.0,45,-99.99,,,-99.99,,2013-03-21 19:02:00,
2013-03-21 13:12:00,32.0,13.0,-100.00,West,274,2.0,6.0,45,-99.99,,,-99.99,,2013-03-21 19:12:00,
2013-03-21 13:22:00,32.0,12.0,-100.00,West,274,2.0,12.0,44,-99.99,,,-99.99,,2013-03-21 19:22:00,
2013-03-21 13:32:00,30.0,14.0,-100.00,WNW,285,5.0,11.0,52,-99.99,,,-99.99,,2013-03-21 19:32:00,
2013-03-21 13:42:00,30.0,14.0,-100.00,WNW,285,5.0,11.0,52,-99.99,,,-99.99,,2013-03-21 19:42:00,
2013-03-21 13:52:00,26.0,19.0,-100.00,WNW,285,5.0,11.0,77,-99.99,,,-99.99,,2013-03-21 19:52:00,
2013-03-21 14:02:00,23.0,20.0,-100.00,West,274,3.0,11.0,89,-99.99,,,-99.99,,2013-03-21 20:02:00,
2013-03-21 14:12:00,23.0,20.0,-100.00,West,279,8.0,11.0,89,-99.99,,,-99.99,,2013-03-21 20:12:00,
2013-03-21 14:22:00,24.0,19.0,-100.00,West,279,7.0,7.0,83,-99.99,,,-99.99,,2013-03-21 20:22:00,
2013-03-21 14:33:00,23.0,19.0,-100.00,NNW,336,11.0,11.0,87,-99.99,,,-99.99,,2013-03-21 20:33:00,
2013-03-21 14:42:00,23.0,19.0,-100.00,West,274,8.0,8.0,87,-99.99,,,-99.99,,2013-03-21 20:42:00,
2013-03-21 14:52:00,24.0,18.0,-100.00,WSW,245,9.0,19.0,78,-99.99,,,-99.99,,2013-03-21 20:52:00,
2013-03-21 15:02:00,20.0,18.0,-100.00,WNW,302,13.0,25.0,93,-99.99,,,-99.99,,2013-03-21 21:02:00,
2013-03-21 15:12:00,20.0,18.0,-100.00,WSW,239,15.0,25.0,93,-99.99,,,-99.99,,2013-03-21 21:12:00,
2013-03-21 15:22:00,24.0,16.0,-100.00,WNW,302,17.0,26.0,74,-99.99,,,-99.99,,2013-03-21 21:22:00,
2013-03-21 15:33:00,22.0,16.0,-100.00,WSW,256,18.0,27.0,80,-99.99,,,-99.99,,2013-03-21 21:33:00,
2013-03-21 15:43:00,22.0,16.0,-100.00,WSW,239,23.0,27.0,80,-99.99,,,-99.99,,2013-03-21 21:43:00,
2013-03-21 15:52:00,19.0,14.0,-100.00,WNW,285,18.0,31.0,84,-99.99,,,-99.99,,2013-03-21 21:52:00,
2013-03-21 16:02:00,22.0,13.0,-100.00,WNW,285,16.0,26.0,70,-99.99,,,-99.99,,2013-03-21 22:02:00,
2013-03-21 16:13:00,22.0,13.0,-100.00,West,268,19.0,26.0,70,-99.99,,,-99.99,,2013-03-21 22:13:00,
2013-03-21 16:23:00,20.0,13.0,-100.00,West,274,17.0,27.0,73,-99.99,,,-99.99,,2013-03-21 22:23:00,
2013-03-21 16:33:00,21.0,9.0,-100.00,West,274,21.0,32.0,60,-99.99,,,-99.99,,2013-03-21 22:33:00,
2013-03-21 16:42:00,21.0,9.0,-100.00,West,262,21.0,32.0,60,-99.99,,,-99.99,,2013-03-21 22:42:00,
2013-03-21 16:52:00,20.0,7.0,-100.00,WSW,239,18.0,32.0,57,-99.99,,,-99.99,,2013-03-21 22:52:00,
2013-03-21 17:02:00,20.0,6.0,-100.00,SW,228,16.0,33.0,56,-99.99,,,-99.99,,2013-03-21 23:02:00,
2013-03-21 17:12:00,20.0,6.0,-100.00,WSW,239,15.0,33.0,56,-99.99,,,-99.99,,2013-03-21 23:12:00,
2013-03-21 17:22:00,21.0,7.0,-100.00,WSW,245,12.0,27.0,56,-99.99,,,-99.99,,2013-03-21 23:22:00,
2013-03-21 17:32:00,21.0,6.0,-100.00,WSW,245,8.0,24.0,51,-99.99,,,-99.99,,2013-03-21 23:32:00,
2013-03-21 17:42:00,21.0,6.0,-100.00,WNW,285,5.0,24.0,51,-99.99,,,-99.99,,2013-03-21 23:42:00,
2013-03-21 17:52:00,21.0,6.0,-100.00,WNW,285,5.0,16.0,52,-99.99,,,-99.99,,2013-03-21 23:52:00,
2013-03-21 18:02:00,20.0,4.0,-100.00,West,262,5.0,13.0,51,-99.99,,,-99.99,,2013-03-22 00:02:00,
2013-03-21 18:12:00,20.0,4.0,-100.00,West,262,5.0,13.0,51,-99.99,,,-99.99,,2013-03-22 00:12:00,
2013-03-21 18:22:00,18.0,6.0,-100.00,SSW,199,4.0,5.0,61,-99.99,,,-99.99,,2013-03-22 00:22:00,
2013-03-21 18:32:00,17.0,4.0,-100.00,WSW,245,12.0,19.0,57,-99.99,,,-99.99,,2013-03-22 00:32:00,
2013-03-21 18:42:00,17.0,4.0,-100.00,West,279,15.0,19.0,57,-99.99,,,-99.99,,2013-03-22 00:42:00,
2013-03-21 18:52:00,16.0,4.0,-100.00,West,274,22.0,26.0,59,-99.99,,,-99.99,,2013-03-22 00:52:00,
2013-03-21 19:02:00,16.0,5.0,-100.00,WSW,245,20.0,29.0,62,-99.99,,,-99.99,,2013-03-22 01:02:00,
2013-03-21 19:12:00,16.0,5.0,-100.00,West,274,22.0,29.0,62,-99.99,,,-99.99,,2013-03-22 01:12:00,
2013-03-21 19:22:00,15.0,3.0,-100.00,South,177,19.0,32.0,60,-99.99,,,-99.99,,2013-03-22 01:22:00,
2013-03-21 19:32:00,15.0,3.0,-100.00,South,177,19.0,32.0,60,-99.99,,,-99.99,,2013-03-22 01:32:00,
2013-03-21 19:43:00,15.0,3.0,-100.00,SSW,211,19.0,31.0,61,-99.99,,,-99.99,,2013-03-22 01:43:00,
2013-03-21 19:52:00,15.0,4.0,-100.00,WSW,251,20.0,31.0,62,-99.99,,,-99.99,,2013-03-22 01:52:00,
2013-03-21 20:02:00,15.0,5.0,-100.00,West,262,17.0,31.0,64,-99.99,,,-99.99,,2013-03-22 02:02:00,
2013-03-21 20:12:00,15.0,5.0,-100.00,WSW,239,17.0,31.0,64,-99.99,,,-99.99,,2013-03-22 02:12:00,
2013-03-21 20:22:00,14.0,6.0,-100.00,WNW,291,17.0,28.0,72,-99.99,,,-99.99,,2013-03-22 02:22:00,
2013-03-21 20:32:00,14.0,7.0,-100.00,West,279,17.0,26.0,74,-99.99,,,-99.99,,2013-03-22 02:32:00,
2013-03-21 20:42:00,14.0,7.0,-100.00,West,279,18.0,26.0,74,-99.99,,,-99.99,,2013-03-22 02:42:00,
2013-03-21 20:52:00,13.0,6.0,-100.00,West,268,17.0,26.0,75,-99.99,,,-99.99,,2013-03-22 02:52:00,
2013-03-21 21:02:00,13.0,7.0,-100.00,WNW,285,17.0,28.0,79,-99.99,,,-99.99,,2013-03-22 03:02:00,
2013-03-21 21:12:00,13.0,7.0,-100.00,West,262,19.0,28.0,79,-99.99,,,-99.99,,2013-03-22 03:12:00,
2013-03-21 21:22:00,13.0,6.0,-100.00,West,274,19.0,19.0,74,-99.99,,,-99.99,,2013-03-22 03:22:00,
2013-03-21 21:33:00,13.0,6.0,-100.00,WNW,291,19.0,27.0,75,-99.99,,,-99.99,,2013-03-22 03:33:00,
2013-03-21 21:43:00,13.0,6.0,-100.00,SW,228,18.0,27.0,75,-99.99,,,-99.99,,2013-03-22 03:43:00,
2013-03-21 21:52:00,13.0,6.0,-100.00,SW,222,20.0,27.0,74,-99.99,,,-99.99,,2013-03-22 03:52:00,
2013-03-21 22:03:00,13.0,5.0,-100.00,NW,325,19.0,30.0,71,-99.99,,,-99.99,,2013-03-22 04:03:00,
2013-03-21 22:12:00,13.0,5.0,-100.00,West,262,19.0,30.0,71,-99.99,,,-99.99,,2013-03-22 04:12:00,
2013-03-21 22:23:00,13.0,5.0,-100.00,WSW,239,18.0,18.0,71,-99.99,,,-99.99,,2013-03-22 04:23:00,
2013-03-21 22:32:00,13.0,5.0,-100.00,West,274,16.0,26.0,71,-99.99,,,-99.99,,2013-03-22 04:32:00,
2013-03-21 22:43:00,13.0,5.0,-100.00,WSW,256,18.0,26.0,71,-99.99,,,-99.99,,2013-03-22 04:43:00,
2013-03-21 22:52:00,13.0,4.0,-100.00,West,274,23.0,34.0,68,-99.99,,,-99.99,,2013-03-22 04:52:00,
2013-03-21 23:02:00,13.0,4.0,-100.00,West,262,19.0,33.0,68,-99.99,,,-99.99,,2013-03-22 05:02:00,
2013-03-21 23:12:00,13.0,4.0,-100.00,SW,222,18.0,33.0,68,-99.99,,,-99.99,,2013-03-22 05:12:00,
2013-03-21 23:22:00,12.0,3.0,-100.00,WSW,256,20.0,33.0,69,-99.99,,,-99.99,,2013-03-22 05:22:00,
2013-03-21 23:32:00,12.0,3.0,-100.00,WSW,256,20.0,33.0,69,-99.99,,,-99.99,,2013-03-22 05:32:00,
2013-03-21 23:42:00,13.0,4.0,-100.00,North,353,15.0,32.0,67,-99.99,,,-99.99,,2013-03-22 05:42:00,
2013-03-21 23:52:00,13.0,4.0,-100.00,NNE,23,7.0,25.0,67,-99.99,,,-99.99,,2013-03-22 05:52:00,